Home   Weather   Spokane   Past weeks

Flag for USA Past Weather in Spokane, Washington, USA — Yesterday and Last 2 Weeks

Now
58 °F

Clear.


Feels Like: 58 °F
Forecast: 53 / 80 °F
Wind: No wind

Location: Felts Field

Current Time: Aug 20, 2017 at 1:17:28 am

Latest Report: Aug 19, 2017 at 11:53 pm


Visibility: 10 mi

Pressure: 30.01 "Hg (28.04 "Hg at 569m altitude)

Humidity: 56%

Dew Point: 42 °F

Location of SpokaneLocation

Past Weather in Spokane — Graph

°F

Spokane Temperature Yesterday

Maximum temperature yesterday: 81 °F (at 2:53 pm)
Minimum temperature yesterday: 58 °F (at 11:53 pm)
Average temperature yesterday: 69 °F

High & Low Weather Summary for the Past Weeks

 TemperatureHumidityPressure
High97 °F (Aug 7, 3:53 pm)80% (Aug 13, 7:53 am)30.05 "Hg (Aug 13, 7:53 am)
Low50 °F (Aug 15, 4:53 am)10% (Aug 7, 5:53 pm)29.74 "Hg (Aug 13, 12:53 am)
Average73 °F42%29.90 "Hg
* Reported Aug 4 11:53 pm — Aug 19 11:53 pm, Spokane. Weather by CustomWeather, © 2017

Note: Actual official high and low records may vary slightly from our data, if they occured in-between our weather recording intervals... More about our weather records

Advertising

Spokane Weather History for the Previous 24 Hours

Scroll right to see more
 ConditionsComfort  
Time TempWeatherWind HumidityBarometerVisibility
11:53 pm
Sat, Aug 19
58 °FClear.No wind56%30.01 "Hg10 mi
10:53 pm59 °FClear.No wind56%30.00 "Hg10 mi
9:53 pm62 °FClear.No wind39%29.99 "Hg10 mi
8:53 pm67 °FClear.No wind31%29.98 "Hg10 mi
7:53 pm74 °FSunny.No wind23%29.97 "Hg10 mi
6:53 pm78 °FSunny.3 mph19%29.96 "Hg10 mi
5:53 pm80 °FSunny.9 mph18%29.96 "Hg10 mi
4:53 pm81 °FSunny.3 mph20%29.96 "Hg10 mi
3:53 pm81 °FSunny.9 mph19%29.97 "Hg10 mi
2:53 pm81 °FSunny.No wind21%29.99 "Hg10 mi
1:53 pm78 °FScattered clouds.7 mph24%30.01 "Hg10 mi
12:53 pm76 °FScattered clouds.No wind30%30.02 "Hg10 mi
11:53 am73 °FSunny.6 mph36%30.03 "Hg10 mi
10:53 am72 °FSunny.9 mph38%30.02 "Hg10 mi
9:53 am68 °FSunny.5 mph45%30.02 "Hg10 mi
8:53 am63 °FSunny.7 mph56%30.02 "Hg10 mi
7:53 am61 °FSunny.7 mph58%30.01 "Hg10 mi
6:53 am61 °FSunny.8 mph56%29.98 "Hg10 mi
5:53 am59 °FSunny.3 mph62%29.96 "Hg10 mi
4:53 am60 °FClear.6 mph60%29.94 "Hg10 mi
3:53 am62 °FClear.8 mph56%29.93 "Hg10 mi
2:53 am63 °FClear.13 mph54%29.92 "Hg10 mi
1:53 am66 °FClear.9 mph47%29.89 "Hg10 mi
Weather by CustomWeather, © 2017

See weather overviewHow to use our weather pages